Regional Weather Roundup
Issued by NWS

Home | Current Version | Previous Version | Graphics & Text | Print | Product List | Glossary On
Versions: 1 2 3 4 5 6 7 8 9 10 11 12 13 14 15 16 17 18 19 20 21 22 23 24 25 26 27 28 29 30 31 32 33 34 35 36 37 38 39 40 41 42 43 44 45 46 47 48 49 50
000
ASUS45 KABQ 230301
RWRNM
WEATHER ROUNDUP FOR NEW MEXICO
NATIONAL WEATHER SERVICE ALBUQUERQUE NM
800 PM MST SAT NOV 22 2014

NOTE: "FAIR" MEANS FEW OR NO CLOUDS BELOW 12,000 FEET AGL WITH NO
       SIGNIFICANT WEATHER OR OBSTRUCTIONS TO VISION.

      THIS PRODUCT IS RELEASED AS TWO VERSIONS.  ONE VERSION NEAR
      THE TOP OF THE HOUR CONTAINING PRELIMINARY DATA FROM ALBUQUERQUE
      AND OTHER STATIONS.  A FINAL VERSION WITH ADDITIONAL DATA IS
      ISSUED ABOUT 10 MINUTES AFTER THE HOUR.

NMZ501-503-504-510>518-230400-
NORTHWEST PLATEAU/NORTHCENTRAL MOUNTAINS

CITY           SKY/WX    TMP DP  RH WIND       PRES   REMARKS
FARMINGTON     MOCLDY    43  22  43 E9        29.87F
SANTA FE       MOCLDY    39  13  34 N6        29.89S WCI  35
TAOS           PTCLDY    36  19  51 E5        29.90F WCI  32
ANGEL FIRE     FAIR      33  12  41 CALM      29.90F

$$
NMZ402-403-502-505>509-230400-
WESTCENTRAL MOUNTAINS/SOUTHWEST MOUNTAINS

CITY           SKY/WX    TMP DP  RH WIND       PRES   REMARKS
GALLUP         CLOUDY    43  14  31 S9        29.96S
GRANTS         MOCLDY    37  10  32 CALM      29.95F
SILVER CITY    CLEAR     45  16  31 NW13      30.00F

$$
NMZ407-409-411-412-230400-
SOUTHERN DESERTS

CITY           SKY/WX    TMP DP  RH WIND       PRES   REMARKS
LORDSBURG      FAIR      45  18  33 W7        29.99F
DEMING         CLEAR     51  19  28 SW9       29.96R
HOLLOMAN AFB   CLEAR     51  20  29 SW8       29.88F
T OR C         CLEAR     51  18  27 W7        29.90S

$$
NMZ519>523-230400-
CENTRAL VALLEYS/CENTRAL HIGHLANDS

CITY           SKY/WX    TMP DP  RH WIND       PRES   REMARKS
ALBUQUERQUE    MOCLDY    45  16  31 E3        29.91S
DOUBLE EAGLE   CLEAR     39  12  33 S6        29.91F WCI  35
MORIARTY ARPT  FAIR      47  16  28 W16       29.89S
CLINES CORNERS PTCLDY    40  18  41 W35       29.80F WCI  28
BELEN          FAIR      45  12  26 SW6       29.91S
SOCORRO        FAIR      46  17  32 CALM      29.90S

$$
NMZ524>526-539-540-230400-
SOUTHCENTRAL MOUNTAINS

CITY           SKY/WX    TMP DP  RH WIND       PRES   REMARKS
RUIDOSO        NOT AVBL

$$
NMZ527>531-230400-
NORTHEAST HIGHLANDS/NORTHEAST PLAINS

CITY           SKY/WX    TMP DP  RH WIND       PRES   REMARKS
LAS VEGAS      CLEAR     48  11  22 NW23G32   29.73F
RATON          PTCLDY    48  15  26 VRB6G25   29.68R
CLAYTON        PTCLDY    45  17  32 W12       29.59F

$$
NMZ532>537-230400-
EASTCENTRAL PLAINS

CITY           SKY/WX    TMP DP  RH WIND       PRES   REMARKS
TUCUMCARI        N/A     54  18  24 W14       29.63F
CANNON AFB     CLEAR     61  16  17 W21G28    29.75F
CLOVIS AIRPORT CLEAR     46  18  31 SW16      29.74F

$$
NMZ028-029-538-230400-
SOUTHEAST PLAINS

CITY           SKY/WX    TMP DP  RH WIND       PRES   REMARKS
ROSWELL        CLEAR     43  24  47 SW7       29.79F
CARLSBAD       CLEAR     54  28  36 W10       29.81R
HOBBS          CLEAR     50  28  43 SW9       29.82S


$$


USA.gov is the U.S. government's official web portal to all federal, state and local government web resources and services.